Flag for Iran Weather past 2 weeks in Esfahãn, Iran

Now
82 °F

Clear.


Feels Like: 80 °F
Forecast: 66 / 98 °F
Wind: 9 mph from East

Location: Esfahan

Current Time: Jul 5, 2015 at 11:29:09 PM

Latest Report: Jul 5, 2015 at 11:00 PM


Visibility: 10 mi

Pressure: 30.01 "Hg (25.10 "Hg at 1576m altitude)

Humidity: 15%

Dew point: 30 °F

Location of EsfahãnLocation

Historic Weather in Esfahãn — Graph

°F

Esfahãn temperature yesterday

Maximum temperature yesterday: 102 °F (at 5:00 PM)
Minimum temperature yesterday: 63 °F (at 5:00 AM)
Average temperature yesterday: 86 °F

Past Weeks' High & Low Weather Summary

 TemperatureHumidityPressure
High104 °F (Jun 30, 3:30 PM)27% (Jun 24, 6:30 AM)30.12 "Hg (Jun 24, 6:30 AM)
Low63 °F (Jun 23, 6:30 AM)3% (Jun 22, 7:30 PM)29.59 "Hg (Jun 26, 4:00 PM)
Average86 °F11%29.88 "Hg
* Reported Jun 20 10:30 PM — Jul 5 10:30 PM, Esfahãn, Weather by CustomWeather, © 2015

Note: Actual official high and low records may vary slightly from our data, if they occured in-between our weather recording intervals... More about our weather records

Advertising

Esfahãn weather history for previous 24 hours

 ConditionsComfort  
Time TempWeatherWind HumidityBarometerVisibility
10:30 PM
Sun, Jul 5
84 °FPassing clouds.7 mph15%30.01 "Hg5 mi
10:00 PM86 °FPassing clouds.7 mph15%30.01 "Hg5 mi
9:30 PM86 °FScattered clouds.7 mph17%30.01 "Hg4 mi
9:00 PM91 °FPartly sunny.7 mph14%30.01 "Hg4 mi
8:30 PM91 °FScattered clouds.9 mph14%29.98 "Hg4 mi
8:00 PM93 °FScattered clouds.9 mph13%29.98 "Hg4 mi
7:30 PM93 °FScattered clouds.12 mph13%29.98 "Hg4 mi
7:00 PM95 °FScattered clouds.12 mph11%29.98 "Hg4 mi
6:30 PM95 °FBroken clouds.14 mph11%30.01 "Hg4 mi
6:00 PM97 °FBroken clouds.18 mph12%30.01 "Hg4 mi
5:30 PM97 °FBroken clouds.16 mph12%30.01 "Hg4 mi
5:00 PM97 °FBroken clouds.16 mph12%30.01 "Hg4 mi
4:20 PM97 °FBroken clouds.18 mph12%30.01 "Hg4 mi
4:00 PM99 °FBroken clouds.9 mph10%30.01 "Hg4 mi
3:30 PM97 °FBroken clouds.9 mph10%30.01 "Hg4 mi
3:00 PM95 °FMore clouds than sun.14 mph11%30.01 "Hg4 mi
2:30 PM95 °FMore clouds than sun.14 mph11%30.01 "Hg4 mi
2:00 PM95 °FBroken clouds.9 mph11%30.01 "Hg4 mi
1:30 PM97 °FBroken clouds.16 mph11%30.01 "Hg4 mi
1:00 PM95 °FScattered clouds.7 mph12%30.04 "Hg3 mi
12:30 PM97 °FScattered clouds.12 mph13%30.04 "Hg3 mi
12:00 PM95 °FHaze.12 mph14%30.04 "Hg3 mi
11:30 AM95 °FHaze.7 mph14%30.04 "Hg3 mi
11:00 AM93 °FHaze.7 mph14%30.04 "Hg3 mi
10:30 AM91 °FHaze.9 mph15%30.04 "Hg3 mi
10:00 AM86 °FHaze.7 mph18%30.04 "Hg3 mi
9:30 AM86 °FHaze.9 mph18%30.04 "Hg2 mi
9:00 AM82 °FHaze.9 mph20%30.07 "Hg2 mi
8:00 AM73 °FHaze.5 mph20%30.04 "Hg1 mi
7:30 AM75 °FHaze.7 mph21%30.04 "Hg1 mi
7:00 AM70 °FHaze.7 mph18%30.04 "Hg1 mi
6:30 AM68 °FHaze.9 mph20%30.04 "Hg1 mi
6:00 AM70 °FHaze.5 mph20%30.04 "Hg2 mi
5:30 AM66 °FClear.5 mph22%30.01 "Hg10 mi
5:00 AM70 °FClear.7 mph16%30.01 "Hg10 mi
4:30 AM75 °FClear.5 mph15%30.01 "Hg10 mi
4:00 AM75 °FClear.7 mph14%30.01 "Hg10 mi
3:30 AM75 °FClear.5 mph15%30.01 "Hg10 mi
3:00 AM75 °FClear.7 mph12%30.01 "Hg10 mi
2:30 AM75 °FClear.5 mph12%30.01 "Hg10 mi
2:00 AM77 °FClear.No wind12%30.01 "Hg10 mi
1:30 AM79 °FClear.No wind12%30.01 "Hg10 mi
1:00 AM79 °FClear.9 mph10%30.01 "Hg10 mi
12:30 AM82 °FClear.No wind9%30.01 "Hg10 mi
12:00 AM86 °FClear.5 mph8%30.01 "Hg10 mi
11:30 PM
Sat, Jul 4
88 °FClear.9 mph9%30.01 "Hg10 mi
11:00 PM90 °FClear.7 mph8%30.01 "Hg10 mi
Weather by CustomWeather, © 2015

See weather overviewHow to use our weather pages